Location: ??????
(56.0120°N, 39.1740°E)
Time: 08:53:03
(UTC+00:00)

NOSS 3-4 (C) - Pass Details

Date: 14 April 2026
Orbit: 773 x 1438 km, 63.4° (Epoch: 26 December)

Event Time Altitude Azimuth Distance (km) Brightness Sun altitude
Rises 19:55:31 0° 240° (WSW) 3,282 6.2 -21.8°
Reaches altitude 10° 19:57:49 10° 242° (WSW) 2,392 5.5 -22.0°
Maximum altitude 20:03:17 73° 328° (NNW) 917 3.4 -22.3°
Drops below altitude 10° 20:09:34 10° 53° (NE) 2,734 6.0 -22.6°
Sets 20:12:22 0° 56° (NE) 3,788 6.8 -22.7°
